Check out our new BloomSky Weather System.

Active alerts


No alerts


Thunder radar  blitzortung!


Rain radar more information rain snow radar


Visit our other weather sites:

Template documentation
and downloads

And another site



Weather Underground History page Text

Daily Summary for August 12, 2017 Units:  English    Metric   Both
« Previous Day
Next Day »
Daily Weekly Monthly Yearly Custom
  High: Low: Average:
Temperature: TemperatureF °F 79.5 °F 87.8 °F
Dew Point: DewpointF °F 73.8 °F 78 °F
Humidity: Humidity % 46 % 74 %
Wind Speed: WindSpeedMPH mph 0.0 mph 2.2 mph
Wind Gust: WindSpeedGustMPH mph - -
Wind:- - South
Pressure: PressureIn in 29.86 in -
Precipitation: 0.00 in    
Historical Graphs
 
 
Tabular Data for August 12, 2017
Time Temperature Dew Point Pressure Wind Wind Speed Wind Gust Humidity Rainfall Rate (Hourly)
TemperatureF °F DewpointF °F PressureIn in Calm     Humidity % HourlyPrecipIn in
00:02 84.0 °F 77.9 °F 29.96 in SSE 1.0 mph 5.0 mph 82 % 0.00 in
00:07 83.8 °F 77.7 °F 29.96 in SSW 2.0 mph 4.0 mph 82 % 0.00 in
00:12 83.7 °F 77.5 °F 29.96 in SSE 1.0 mph 4.0 mph 82 % 0.00 in
00:17 83.7 °F 77.5 °F 29.96 in SSE 1.0 mph 3.0 mph 82 % 0.00 in
00:22 83.7 °F 77.5 °F 29.96 in South 1.0 mph 3.0 mph 82 % 0.00 in
00:27 83.5 °F 77.4 °F 29.96 in Calm   3.0 mph 82 % 0.00 in
00:32 83.1 °F 77.0 °F 29.96 in Calm   3.0 mph 82 % 0.00 in
00:37 82.9 °F 77.2 °F 29.97 in Calm   3.0 mph 83 % 0.00 in
00:42 82.8 °F 77.0 °F 29.97 in Calm   1.0 mph 83 % 0.00 in
00:47 82.6 °F 77.2 °F 29.97 in Calm     84 % 0.00 in
00:52 82.4 °F 77.0 °F 29.96 in Calm   1.0 mph 84 % 0.00 in
00:57 82.2 °F 76.8 °F 29.97 in South 1.0 mph 1.0 mph 84 % 0.00 in
01:02 82.2 °F 76.8 °F 29.96 in South 1.0 mph 2.0 mph 84 % 0.00 in
01:07 82.4 °F 77.0 °F 29.97 in SE 1.0 mph 2.0 mph 84 % 0.00 in
01:12 82.4 °F 77.0 °F 29.97 in SE 2.0 mph 2.0 mph 84 % 0.00 in
01:17 82.6 °F 77.2 °F 29.97 in SSW 1.0 mph 2.0 mph 84 % 0.00 in
01:22 82.6 °F 77.2 °F 29.97 in SSW 1.0 mph 2.0 mph 84 % 0.00 in
01:27 82.4 °F 77.0 °F 29.97 in South 2.0 mph 3.0 mph 84 % 0.00 in
01:32 82.2 °F 76.8 °F 29.97 in SSE 1.0 mph 3.0 mph 84 % 0.00 in
01:37 82.0 °F 77.0 °F 29.97 in SSW 1.0 mph 3.0 mph 85 % 0.00 in
01:39 82.0 °F 77.0 °F 29.96 in SSW 1.0 mph 3.0 mph 85 % 0.00 in
01:44 81.9 °F 76.8 °F 29.96 in SSW 2.0 mph 2.0 mph 85 % 0.00 in
01:49 81.9 °F 76.8 °F 29.96 in South 2.0 mph 3.0 mph 85 % 0.00 in
01:54 81.9 °F 77.2 °F 29.96 in SSW 1.0 mph 3.0 mph 86 % 0.00 in
01:59 81.7 °F 77.0 °F 29.96 in SSE 1.0 mph 3.0 mph 86 % 0.00 in
02:05 81.7 °F 77.0 °F 29.97 in Calm   3.0 mph 86 % 0.00 in
02:10 81.7 °F 77.4 °F 29.96 in South 1.0 mph 3.0 mph 87 % 0.00 in
02:15 81.5 °F 77.2 °F 29.96 in SSW 1.0 mph 3.0 mph 87 % 0.00 in
02:20 81.3 °F 77.0 °F 29.96 in SE 1.0 mph 3.0 mph 87 % 0.00 in
02:25 81.3 °F 77.4 °F 29.96 in Calm   3.0 mph 88 % 0.00 in
02:30 81.1 °F 77.2 °F 29.96 in Calm   2.0 mph 88 % 0.00 in
02:35 81.1 °F 77.5 °F 29.96 in South 2.0 mph 2.0 mph 89 % 0.00 in
02:40 81.1 °F 77.5 °F 29.96 in South 2.0 mph 3.0 mph 89 % 0.00 in
02:50 81.1 °F 77.9 °F 29.96 in SE 2.0 mph 4.0 mph 90 % 0.00 in
02:55 81.1 °F 77.9 °F 29.97 in South 1.0 mph 4.0 mph 90 % 0.00 in
03:00 81.1 °F 77.9 °F 29.97 in Calm   3.0 mph 90 % 0.00 in
03:05 81.1 °F 77.9 °F 29.97 in Calm   2.0 mph 90 % 0.00 in
03:10 81.0 °F 77.7 °F 29.97 in Calm   2.0 mph 90 % 0.00 in
03:15 81.0 °F 78.1 °F 29.97 in Calm   2.0 mph 91 % 0.00 in
03:20 81.0 °F 78.1 °F 29.97 in South 1.0 mph 2.0 mph 91 % 0.00 in
03:25 81.0 °F 78.1 °F 29.97 in South 1.0 mph 2.0 mph 91 % 0.00 in
03:30 80.8 °F 77.9 °F 29.97 in Calm   2.0 mph 91 % 0.00 in
03:35 80.8 °F 78.3 °F 29.96 in South 1.0 mph 3.0 mph 92 % 0.00 in
03:40 80.8 °F 78.3 °F 29.97 in SSW 2.0 mph 4.0 mph 92 % 0.00 in
03:44 80.8 °F 78.3 °F 29.96 in SSE 1.0 mph 4.0 mph 92 % 0.00 in
03:49 81.0 °F 78.4 °F 29.96 in Calm   4.0 mph 92 % 0.00 in
03:54 81.0 °F 78.8 °F 29.96 in SSW 2.0 mph 4.0 mph 93 % 0.00 in
03:59 81.0 °F 78.8 °F 29.96 in SSW 4.0 mph 5.0 mph 93 % 0.00 in
04:04 81.0 °F 78.8 °F 29.96 in SSW 2.0 mph 5.0 mph 93 % 0.00 in
04:09 80.8 °F 78.6 °F 29.96 in SSW 4.0 mph 5.0 mph 93 % 0.00 in
04:14 81.0 °F 78.8 °F 29.96 in South 6.0 mph 6.0 mph 93 % 0.00 in
04:19 81.0 °F 78.8 °F 29.96 in SSW 4.0 mph 7.0 mph 93 % 0.00 in
04:24 81.0 °F 78.8 °F 29.96 in SSW 1.0 mph 7.0 mph 93 % 0.00 in
04:30 80.8 °F 78.6 °F 29.96 in South 2.0 mph 7.0 mph 93 % 0.00 in
04:35 80.8 °F 78.6 °F 29.96 in SE 4.0 mph 6.0 mph 93 % 0.00 in
04:40 80.6 °F 78.4 °F 29.96 in SSW 4.0 mph 7.0 mph 93 % 0.00 in
04:45 80.4 °F 78.3 °F 29.96 in SE 1.0 mph 7.0 mph 93 % 0.00 in
04:50 80.4 °F 78.3 °F 29.96 in South 1.0 mph 8.0 mph 93 % 0.00 in
04:55 80.4 °F 78.3 °F 29.96 in Calm   8.0 mph 93 % 0.00 in
05:00 80.4 °F 78.3 °F 29.96 in Calm   8.0 mph 93 % 0.00 in
05:05 80.2 °F 78.1 °F 29.96 in South 1.0 mph 5.0 mph 93 % 0.00 in
05:10 80.2 °F 78.1 °F 29.96 in Calm   4.0 mph 93 % 0.00 in
05:15 80.2 °F 78.1 °F 29.96 in SSW 1.0 mph 3.0 mph 93 % 0.00 in
05:20 80.1 °F 77.9 °F 29.96 in Calm   3.0 mph 93 % 0.00 in
05:25 79.9 °F 77.7 °F 29.96 in Calm   3.0 mph 93 % 0.00 in
05:30 79.9 °F 78.1 °F 29.96 in Calm   3.0 mph 94 % 0.00 in
05:35 79.9 °F 78.1 °F 29.96 in SSW 1.0 mph 4.0 mph 94 % 0.00 in
05:40 79.9 °F 78.1 °F 29.96 in SSW 1.0 mph 4.0 mph 94 % 0.00 in
05:58 79.5 °F 77.7 °F 29.96 in Calm   4.0 mph 94 % 0.00 in
06:03 79.5 °F 77.7 °F 29.96 in Calm   4.0 mph 94 % 0.00 in
06:08 79.5 °F 77.7 °F 29.96 in SSE 2.0 mph 4.0 mph 94 % 0.00 in
06:13 79.5 °F 77.9 °F 29.96 in South 1.0 mph 3.0 mph 95 % 0.00 in
06:18 79.5 °F 77.9 °F 29.96 in SE 1.0 mph 3.0 mph 95 % 0.00 in
06:23 79.5 °F 77.9 °F 29.97 in SSE 1.0 mph 5.0 mph 95 % 0.00 in
06:28 79.5 °F 77.9 °F 29.97 in South 1.0 mph 5.0 mph 95 % 0.00 in
06:33 79.5 °F 77.9 °F 29.97 in South 2.0 mph 5.0 mph 95 % 0.00 in
06:38 79.5 °F 77.9 °F 29.97 in SSW 1.0 mph 4.0 mph 95 % 0.00 in
06:43 79.5 °F 77.9 °F 29.97 in Calm   4.0 mph 95 % 0.00 in
06:48 79.5 °F 77.9 °F 29.97 in South 2.0 mph 4.0 mph 95 % 0.00 in
06:53 79.5 °F 77.9 °F 29.97 in SSE 2.0 mph 4.0 mph 95 % 0.00 in
06:58 79.5 °F 77.9 °F 29.97 in Calm   3.0 mph 95 % 0.00 in
07:03 79.5 °F 77.9 °F 29.98 in South 1.0 mph 3.0 mph 95 % 0.00 in
07:08 79.5 °F 77.9 °F 29.98 in Calm   3.0 mph 95 % 0.00 in
07:13 79.5 °F 77.9 °F 29.98 in SSE 1.0 mph 2.0 mph 95 % 0.00 in
07:18 79.5 °F 77.9 °F 29.99 in Calm   2.0 mph 95 % 0.00 in
07:23 79.7 °F 78.1 °F 29.99 in Calm   2.0 mph 95 % 0.00 in
07:28 79.9 °F 78.3 °F 29.99 in Calm   2.0 mph 95 % 0.00 in
07:33 80.1 °F 78.4 °F 29.99 in Calm   2.0 mph 95 % 0.00 in
07:38 80.1 °F 78.4 °F 29.99 in Calm   2.0 mph 95 % 0.00 in
07:43 80.2 °F 78.6 °F 29.99 in Calm   1.0 mph 95 % 0.00 in
07:48 80.4 °F 78.8 °F 29.99 in Calm   1.0 mph 95 % 0.00 in
07:53 81.0 °F 79.3 °F 29.99 in Calm   2.0 mph 95 % 0.00 in
07:58 81.1 °F 79.2 °F 29.99 in Calm   2.0 mph 94 % 0.00 in
08:03 81.5 °F 79.5 °F 29.99 in Calm   2.0 mph 94 % 0.00 in
08:08 81.9 °F 79.9 °F 29.99 in Calm   2.0 mph 94 % 0.00 in
08:13 82.0 °F 79.9 °F 29.99 in South 1.0 mph 2.0 mph 93 % 0.00 in
08:18 82.4 °F 79.9 °F 29.99 in SSW 1.0 mph 2.0 mph 92 % 0.00 in
08:23 82.4 °F 79.9 °F 29.99 in SW 1.0 mph 2.0 mph 92 % 0.00 in
08:28 82.6 °F 80.1 °F 29.99 in South 2.0 mph 3.0 mph 92 % 0.00 in
08:33 82.8 °F 80.2 °F 29.99 in Calm   7.0 mph 92 % 0.00 in
08:38 83.1 °F 80.2 °F 29.99 in SSW 3.0 mph 7.0 mph 91 % 0.00 in
08:43 83.5 °F 80.2 °F 29.99 in SSW 4.0 mph 7.0 mph 90 % 0.00 in
08:48 84.0 °F 80.4 °F 29.99 in SW 1.0 mph 6.0 mph 89 % 0.00 in
08:53 84.7 °F 81.1 °F 29.99 in SW 1.0 mph 6.0 mph 89 % 0.00 in
08:58 85.3 °F 81.3 °F 29.99 in WSW 2.0 mph 6.0 mph 88 % 0.00 in
09:03 85.5 °F 81.1 °F 29.99 in SSE 5.0 mph 5.0 mph 87 % 0.00 in
09:08 85.5 °F 80.4 °F 29.99 in South 1.0 mph 7.0 mph 85 % 0.00 in
09:13 85.5 °F 80.4 °F 29.99 in SW 4.0 mph 8.0 mph 85 % 0.00 in
09:18 85.8 °F 80.8 °F 29.99 in SSW 2.0 mph 8.0 mph 85 % 0.00 in
09:23 86.2 °F 81.1 °F 29.99 in Calm   8.0 mph 85 % 0.00 in
09:28 86.7 °F 81.0 °F 29.99 in SW 3.0 mph 8.0 mph 83 % 0.00 in
09:33 87.1 °F 80.6 °F 29.99 in SSW 1.0 mph 8.0 mph 81 % 0.00 in
09:38 87.4 °F 81.0 °F 29.99 in SSW 2.0 mph 8.0 mph 81 % 0.00 in
09:43 87.6 °F 81.1 °F 29.99 in SSW 2.0 mph 7.0 mph 81 % 0.00 in
09:48 87.4 °F 80.4 °F 29.99 in South 3.0 mph 6.0 mph 80 % 0.00 in
09:53 87.3 °F 80.2 °F 29.99 in SW 2.0 mph 8.0 mph 80 % 0.00 in
09:58 87.4 °F 80.4 °F 29.99 in WSW 3.0 mph 10.0 mph 80 % 0.00 in
09:59 87.4 °F 80.4 °F 29.99 in WSW 5.0 mph 10.0 mph 80 % 0.00 in
10:04 87.8 °F 80.4 °F 29.99 in NW 4.0 mph 10.0 mph 79 % 0.00 in
10:09 87.8 °F 80.1 °F 29.99 in SSW 4.0 mph 10.0 mph 78 % 0.00 in
10:14 87.6 °F 80.2 °F 29.99 in SSE 4.0 mph 10.0 mph 79 % 0.00 in
10:19 87.4 °F 80.4 °F 30.00 in SW 1.0 mph 10.0 mph 80 % 0.00 in
10:24 87.8 °F 80.4 °F 30.00 in SW 2.0 mph 10.0 mph 79 % 0.00 in
10:29 87.8 °F 80.1 °F 30.00 in SW 7.0 mph 10.0 mph 78 % 0.00 in
10:34 88.0 °F 80.6 °F 30.00 in SW 6.0 mph 10.0 mph 79 % 0.00 in
10:39 88.2 °F 80.1 °F 30.00 in SSW 1.0 mph 9.0 mph 77 % 0.00 in
10:44 88.2 °F 80.1 °F 30.00 in SSE 1.0 mph 9.0 mph 77 % 0.00 in
10:49 88.3 °F 80.2 °F 29.99 in SSW 1.0 mph 9.0 mph 77 % 0.00 in
10:54 88.7 °F 79.7 °F 29.99 in South 4.0 mph 9.0 mph 75 % 0.00 in
10:59 89.1 °F 79.3 °F 29.99 in SSW 4.0 mph 8.0 mph 73 % 0.00 in
11:00 89.1 °F 79.3 °F 29.99 in SSE 3.0 mph 8.0 mph 73 % 0.00 in
11:05 89.4 °F 80.8 °F 29.99 in SSW 5.0 mph 10.0 mph 76 % 0.00 in
11:10 90.0 °F 80.6 °F 29.99 in SW 3.0 mph 10.0 mph 74 % 0.00 in
11:15 90.1 °F 79.5 °F 29.99 in SSE 3.0 mph 10.0 mph 71 % 0.00 in
11:20 90.1 °F 79.5 °F 29.99 in SW 2.0 mph 7.0 mph 71 % 0.00 in
11:25 90.3 °F 79.7 °F 29.99 in SW 2.0 mph 7.0 mph 71 % 0.00 in
11:30 90.9 °F 80.1 °F 29.99 in SSW 3.0 mph 7.0 mph 71 % 0.00 in
11:35 91.2 °F 81.3 °F 29.99 in West 2.0 mph 6.0 mph 73 % 0.00 in
11:40 91.8 °F 81.0 °F 29.99 in SSE 1.0 mph 6.0 mph 71 % 0.00 in
11:45 92.5 °F 80.4 °F 29.99 in SSW 1.0 mph 6.0 mph 68 % 0.00 in
11:50 92.8 °F 80.8 °F 29.99 in SW 2.0 mph 6.0 mph 68 % 0.00 in
11:54 92.7 °F 79.7 °F 29.98 in South 3.0 mph 6.0 mph 66 % 0.00 in
11:59 93.0 °F 81.0 °F 29.98 in Calm   8.0 mph 68 % 0.00 in
12:04 93.2 °F 81.1 °F 29.98 in SSW 1.0 mph 8.0 mph 68 % 0.00 in
12:09 93.0 °F 80.4 °F 29.98 in South 1.0 mph 8.0 mph 67 % 0.00 in
12:14 93.4 °F 80.2 °F 29.98 in SSW 1.0 mph 7.0 mph 66 % 0.00 in
12:19 93.7 °F 80.6 °F 29.97 in SE 3.0 mph 7.0 mph 66 % 0.00 in
12:24 93.7 °F 80.6 °F 29.97 in SSW 1.0 mph 7.0 mph 66 % 0.00 in
12:29 94.3 °F 80.8 °F 29.97 in SSW 3.0 mph 5.0 mph 65 % 0.00 in
12:34 94.3 °F 79.7 °F 29.97 in WSW 1.0 mph 6.0 mph 63 % 0.00 in
12:39 94.1 °F 81.5 °F 29.97 in Calm   6.0 mph 67 % 0.00 in
12:44 94.8 °F 80.8 °F 29.97 in SSW 5.0 mph 6.0 mph 64 % 0.00 in
12:49 94.6 °F 80.6 °F 29.97 in SSW 2.0 mph 6.0 mph 64 % 0.00 in
12:54 94.6 °F 80.1 °F 29.96 in WSW 1.0 mph 6.0 mph 63 % 0.00 in
12:59 95.4 °F 79.3 °F 29.96 in SSE 4.0 mph 6.0 mph 60 % 0.00 in
13:04 95.5 °F 79.9 °F 29.96 in South 1.0 mph 8.0 mph 61 % 0.00 in
13:09 96.1 °F 79.3 °F 29.96 in SSW 4.0 mph 8.0 mph 59 % 0.00 in
13:14 95.4 °F 78.3 °F 29.96 in SSE 5.0 mph 8.0 mph 58 % 0.00 in
13:19 94.6 °F 79.2 °F 29.96 in South 2.0 mph 5.0 mph 61 % 0.00 in
13:24 94.8 °F 78.8 °F 29.95 in NW 3.0 mph 5.0 mph 60 % 0.00 in
13:26 95.0 °F 81.0 °F 29.95 in SSW 3.0 mph 6.0 mph 64 % 0.00 in
13:31 95.4 °F 79.7 °F 29.95 in SE 3.0 mph 7.0 mph 61 % 0.00 in
13:36 95.2 °F 79.2 °F 29.95 in SW 1.0 mph 8.0 mph 60 % 0.00 in
13:41 95.2 °F 79.5 °F 29.95 in Calm   8.0 mph 61 % 0.00 in
13:46 95.2 °F 80.1 °F 29.95 in SW 1.0 mph 8.0 mph 62 % 0.00 in
13:51 95.4 °F 79.7 °F 29.94 in SSW 2.0 mph 6.0 mph 61 % 0.00 in
13:56 95.4 °F 78.3 °F 29.94 in ESE 1.0 mph 6.0 mph 58 % 0.00 in
14:01 95.7 °F 78.6 °F 29.94 in WNW 2.0 mph 5.0 mph 58 % 0.00 in
14:06 96.1 °F 78.4 °F 29.94 in WSW 1.0 mph 5.0 mph 57 % 0.00 in
14:11 96.1 °F 79.3 °F 29.93 in South 2.0 mph 5.0 mph 59 % 0.00 in
14:16 96.4 °F 80.2 °F 29.93 in SSW 1.0 mph 5.0 mph 60 % 0.00 in
14:21 96.8 °F 79.5 °F 29.93 in Calm   7.0 mph 58 % 0.00 in
14:26 97.5 °F 79.7 °F 29.93 in SE 6.0 mph 7.0 mph 57 % 0.00 in
14:31 97.2 °F 78.3 °F 29.93 in South 2.0 mph 7.0 mph 55 % 0.00 in
14:37 97.0 °F 78.6 °F 29.92 in South 3.0 mph 6.0 mph 56 % 0.00 in
14:42 97.0 °F 78.1 °F 29.92 in SSW 1.0 mph 6.0 mph 55 % 0.00 in
14:47 96.6 °F 77.7 °F 29.92 in SSE 1.0 mph 4.0 mph 55 % 0.00 in
14:52 96.6 °F 78.3 °F 29.92 in SSW 2.0 mph 8.0 mph 56 % 0.00 in
14:57 96.4 °F 77.0 °F 29.92 in ESE 7.0 mph 8.0 mph 54 % 0.00 in
15:02 96.1 °F 76.8 °F 29.91 in Calm   8.0 mph 54 % 0.00 in
15:07 96.1 °F 79.0 °F 29.91 in WSW 1.0 mph 8.0 mph 58 % 0.00 in
15:12 95.9 °F 79.3 °F 29.91 in NW 1.0 mph 8.0 mph 59 % 0.00 in
15:17 96.4 °F 77.5 °F 29.91 in SE 4.0 mph 6.0 mph 55 % 0.00 in
15:22 96.6 °F 78.8 °F 29.91 in SSE 4.0 mph 8.0 mph 57 % 0.00 in
15:27 96.8 °F 77.4 °F 29.91 in Calm   8.0 mph 54 % 0.00 in
15:32 97.0 °F 77.0 °F 29.91 in SW 1.0 mph 8.0 mph 53 % 0.00 in
15:37 97.2 °F 78.8 °F 29.90 in SE 1.0 mph 5.0 mph 56 % 0.00 in
15:42 97.0 °F 77.0 °F 29.90 in Calm   7.0 mph 53 % 0.00 in
15:47 97.0 °F 78.1 °F 29.90 in SSE 1.0 mph 7.0 mph 55 % 0.00 in
15:52 97.0 °F 78.6 °F 29.90 in SSW 4.0 mph 7.0 mph 56 % 0.00 in
15:57 96.4 °F 77.5 °F 29.90 in SE 3.0 mph 7.0 mph 55 % 0.00 in
16:02 96.1 °F 76.1 °F 29.90 in SSE 5.0 mph 7.0 mph 53 % 0.00 in
16:07 95.5 °F 77.4 °F 29.90 in South 1.0 mph 7.0 mph 56 % 0.00 in
16:12 96.1 °F 77.9 °F 29.90 in SE 2.0 mph 7.0 mph 56 % 0.00 in
16:17 96.3 °F 76.3 °F 29.89 in ESE 2.0 mph 6.0 mph 53 % 0.00 in
16:22 96.6 °F 77.2 °F 29.89 in SSE 2.0 mph 6.0 mph 54 % 0.00 in
16:27 97.0 °F 75.9 °F 29.89 in Calm   6.0 mph 51 % 0.00 in
16:32 97.3 °F 76.1 °F 29.89 in SSW 3.0 mph 6.0 mph 51 % 0.00 in
16:37 96.6 °F 74.8 °F 29.89 in SE 2.0 mph 6.0 mph 50 % 0.00 in
16:42 96.4 °F 74.8 °F 29.89 in East 3.0 mph 6.0 mph 50 % 0.00 in
16:47 96.8 °F 76.3 °F 29.89 in SW 2.0 mph 8.0 mph 52 % 0.00 in
16:52 97.2 °F 75.9 °F 29.89 in SSW 4.0 mph 8.0 mph 51 % 0.00 in
16:57 97.3 °F 76.1 °F 29.89 in West 1.0 mph 8.0 mph 51 % 0.00 in
17:02 98.1 °F 73.8 °F 29.89 in SW 1.0 mph 7.0 mph 46 % 0.00 in
17:07 98.4 °F 74.7 °F 29.88 in SE 2.0 mph 7.0 mph 47 % 0.00 in
17:12 98.8 °F 76.8 °F 29.88 in SSW 1.0 mph 5.0 mph 50 % 0.00 in
17:17 98.6 °F 76.6 °F 29.88 in SSW 4.0 mph 5.0 mph 50 % 0.00 in
17:22 98.6 °F 76.1 °F 29.88 in SE 3.0 mph 6.0 mph 49 % 0.00 in
17:27 98.4 °F 75.9 °F 29.88 in SSE 2.0 mph 6.0 mph 49 % 0.00 in
17:32 98.1 °F 75.6 °F 29.88 in South 5.0 mph 6.0 mph 49 % 0.00 in
17:37 97.9 °F 77.2 °F 29.88 in SSW 2.0 mph 8.0 mph 52 % 0.00 in
17:42 98.1 °F 76.8 °F 29.88 in SSE 4.0 mph 8.0 mph 51 % 0.00 in
17:47 97.5 °F 75.2 °F 29.88 in SE 2.0 mph 9.0 mph 49 % 0.00 in
17:52 97.2 °F 75.9 °F 29.88 in ESE 6.0 mph 9.0 mph 51 % 0.00 in
17:57 97.0 °F 75.2 °F 29.87 in ESE 2.0 mph 9.0 mph 50 % 0.00 in
18:02 97.2 °F 75.9 °F 29.88 in SSE 3.0 mph 8.0 mph 51 % 0.00 in
18:07 97.2 °F 75.9 °F 29.87 in SSE 3.0 mph 6.0 mph 51 % 0.00 in
18:12 96.4 °F 74.8 °F 29.87 in SE 3.0 mph 7.0 mph 50 % 0.00 in
18:17 95.9 °F 74.8 °F 29.87 in SE 4.0 mph 7.0 mph 51 % 0.00 in
18:22 95.5 °F 75.7 °F 29.87 in ESE 2.0 mph 7.0 mph 53 % 0.00 in
18:27 95.2 °F 75.4 °F 29.87 in ESE 1.0 mph 6.0 mph 53 % 0.00 in
18:32 94.8 °F 75.6 °F 29.87 in Calm   5.0 mph 54 % 0.00 in
18:37 94.6 °F 75.4 °F 29.87 in South 3.0 mph 4.0 mph 54 % 0.00 in
18:42 94.6 °F 75.4 °F 29.87 in SE 1.0 mph 4.0 mph 54 % 0.00 in
18:47 94.3 °F 76.1 °F 29.86 in ESE 1.0 mph 4.0 mph 56 % 0.00 in
18:52 94.3 °F 75.6 °F 29.86 in Calm   4.0 mph 55 % 0.00 in
18:57 94.3 °F 76.1 °F 29.86 in ESE 1.0 mph 3.0 mph 56 % 0.00 in
19:02 94.1 °F 75.4 °F 29.86 in ESE 2.0 mph 3.0 mph 55 % 0.00 in
19:07 94.3 °F 75.6 °F 29.86 in SE 1.0 mph 3.0 mph 55 % 0.00 in
19:12 94.6 °F 76.5 °F 29.86 in ESE 1.0 mph 4.0 mph 56 % 0.00 in
19:17 94.6 °F 75.9 °F 29.86 in Calm   4.0 mph 55 % 0.00 in
19:22 94.5 °F 75.7 °F 29.86 in SSE 2.0 mph 4.0 mph 55 % 0.00 in
19:27 94.5 °F 76.3 °F 29.86 in East 1.0 mph 4.0 mph 56 % 0.00 in
19:32 94.3 °F 77.2 °F 29.86 in ESE 5.0 mph 5.0 mph 58 % 0.00 in
19:37 93.4 °F 78.8 °F 29.86 in SE 1.0 mph 6.0 mph 63 % 0.00 in
19:42 92.7 °F 79.2 °F 29.86 in SSE 5.0 mph 10.0 mph 65 % 0.00 in
19:47 92.1 °F 79.5 °F 29.86 in SE 3.0 mph 10.0 mph 67 % 0.00 in
19:52 91.9 °F 79.9 °F 29.86 in SSE 2.0 mph 10.0 mph 68 % 0.00 in
19:57 91.6 °F 79.9 °F 29.86 in East 3.0 mph 5.0 mph 69 % 0.00 in
20:02 91.2 °F 80.1 °F 29.86 in ESE 2.0 mph 8.0 mph 70 % 0.00 in
20:07 91.0 °F 80.8 °F 29.86 in ESE 3.0 mph 8.0 mph 72 % 0.00 in
20:12 90.9 °F 81.0 °F 29.86 in SSE 1.0 mph 8.0 mph 73 % 0.00 in
20:17 90.7 °F 80.8 °F 29.86 in SSE 2.0 mph 8.0 mph 73 % 0.00 in
20:22 90.3 °F 80.4 °F 29.86 in ESE 1.0 mph 8.0 mph 73 % 0.00 in
20:27 90.3 °F 80.4 °F 29.87 in East 3.0 mph 7.0 mph 73 % 0.00 in
20:32 90.1 °F 80.2 °F 29.87 in ESE 2.0 mph 7.0 mph 73 % 0.00 in
20:37 90.1 °F 80.2 °F 29.87 in ESE 2.0 mph 6.0 mph 73 % 0.00 in
20:42 90.0 °F 79.7 °F 29.87 in SE 2.0 mph 6.0 mph 72 % 0.00 in
20:47 90.0 °F 79.7 °F 29.88 in ESE 4.0 mph 6.0 mph 72 % 0.00 in
20:52 90.0 °F 79.7 °F 29.88 in SSW 4.0 mph 9.0 mph 72 % 0.00 in
20:57 89.8 °F 77.7 °F 29.88 in SSE 4.0 mph 10.0 mph 68 % 0.00 in
21:02 89.8 °F 77.7 °F 29.88 in SSE 8.0 mph 13.0 mph 68 % 0.00 in
21:07 89.8 °F 77.7 °F 29.88 in SW 5.0 mph 13.0 mph 68 % 0.00 in
21:12 89.4 °F 77.5 °F 29.88 in SSW 5.0 mph 13.0 mph 68 % 0.00 in
21:17 89.2 °F 76.8 °F 29.88 in South 4.0 mph 10.0 mph 67 % 0.00 in
21:22 88.9 °F 76.5 °F 29.89 in South 8.0 mph 11.0 mph 67 % 0.00 in
21:27 88.5 °F 75.7 °F 29.89 in SSE 7.0 mph 11.0 mph 66 % 0.00 in
21:32 88.3 °F 75.6 °F 29.89 in SE 6.0 mph 12.0 mph 66 % 0.00 in
21:37 88.2 °F 75.7 °F 29.89 in SSE 6.0 mph 12.0 mph 67 % 0.00 in
21:42 88.0 °F 76.1 °F 29.89 in South 5.0 mph 12.0 mph 68 % 0.00 in
21:47 87.6 °F 76.1 °F 29.90 in SSE 4.0 mph 12.0 mph 69 % 0.00 in
21:52 87.4 °F 75.9 °F 29.90 in South 4.0 mph 12.0 mph 69 % 0.00 in
21:57 87.3 °F 76.3 °F 29.90 in ESE 8.0 mph 11.0 mph 70 % 0.00 in
22:02 87.3 °F 76.6 °F 29.91 in SSW 6.0 mph 11.0 mph 71 % 0.00 in
22:07 87.1 °F 77.0 °F 29.91 in SSE 7.0 mph 11.0 mph 72 % 0.00 in
22:13 86.7 °F 77.0 °F 29.91 in South 4.0 mph 13.0 mph 73 % 0.00 in
22:17 86.5 °F 76.8 °F 29.92 in SE 4.0 mph 13.0 mph 73 % 0.00 in
22:23 86.5 °F 77.2 °F 29.92 in SSW 3.0 mph 13.0 mph 74 % 0.00 in
22:24 86.5 °F 77.7 °F 29.92 in SSW 5.0 mph 13.0 mph 75 % 0.00 in
22:28 86.4 °F 77.5 °F 29.92 in South 3.0 mph 11.0 mph 75 % 0.00 in
22:31 86.4 °F 77.9 °F 29.92 in SE 5.0 mph 11.0 mph 76 % 0.00 in
22:32 86.2 °F 77.7 °F 29.92 in SSE 5.0 mph 11.0 mph 76 % 0.00 in
22:37 86.2 °F 78.1 °F 29.92 in ESE 6.0 mph 11.0 mph 77 % 0.00 in
22:42 85.8 °F 77.7 °F 29.93 in SE 6.0 mph 10.0 mph 77 % 0.00 in
22:47 85.6 °F 77.9 °F 29.93 in SSE 6.0 mph 10.0 mph 78 % 0.00 in
22:52 85.6 °F 77.9 °F 29.93 in SE 3.0 mph 10.0 mph 78 % 0.00 in
22:57 85.5 °F 78.3 °F 29.93 in SSE 5.0 mph 11.0 mph 79 % 0.00 in
23:02 85.3 °F 78.1 °F 29.93 in ESE 9.0 mph 11.0 mph 79 % 0.00 in
23:03 85.3 °F 78.1 °F 29.93 in SE 4.0 mph 11.0 mph 79 % 0.00 in
23:08 85.3 °F 78.1 °F 29.93 in South 4.0 mph 11.0 mph 79 % 0.00 in
23:13 84.9 °F 77.7 °F 29.93 in SSW 4.0 mph 10.0 mph 79 % 0.00 in
23:18 84.7 °F 77.9 °F 29.94 in South 3.0 mph 10.0 mph 80 % 0.00 in
23:23 84.6 °F 77.7 °F 29.94 in SSE 7.0 mph 9.0 mph 80 % 0.00 in
23:28 84.4 °F 77.2 °F 29.94 in South 6.0 mph 10.0 mph 79 % 0.00 in
23:33 84.4 °F 77.2 °F 29.93 in SSW 2.0 mph 10.0 mph 79 % 0.00 in
23:38 84.0 °F 76.8 °F 29.93 in SSW 3.0 mph 10.0 mph 79 % 0.00 in
23:43 83.8 °F 77.0 °F 29.93 in SSE 3.0 mph 10.0 mph 80 % 0.00 in
23:48 83.8 °F 77.0 °F 29.93 in SSE 2.0 mph 8.0 mph 80 % 0.00 in
23:53 83.7 °F 76.8 °F 29.93 in SE 3.0 mph 8.0 mph 80 % 0.00 in
23:59 83.5 °F 76.6 °F 29.92 in SSW 2.0 mph 8.0 mph 80 % 0.00 in
Spring, Texas: Villages of Bridgestone
Compliments of Weather Underground - 2.75 mb

Script developed by  Jim McMurry - jmcmurry@mwt.net Adapted for the template by  Wim van der Kuil - Leuven-Template.eu

You find our weather info also at:

UK Metoffice

WeatherCloud

Weather Underground

Mid-South Weather Network

AWEKAS

Citizen Weather Observer Program (CWOP)

HAMweather, WeatherForYou, PWS Weather

Equipment we use:

Weather-station
Davis Vantage Vue

Weather-program
Meteohub

Weather-server
Debian 7.9 x86 (Guest)

Provider
DreamHost

Davis Vantage Vue

Meteohub

Debian 7.9 x86 (Guest)

DreamHost